Year,Month,Day,Hour,Minute,Value (Times are PST for temperature in C)
2018,08,07,00,00,18.40
2018,08,07,00,01,18.40
2018,08,07,00,02,18.30
2018,08,07,00,03,18.30
2018,08,07,00,04,18.30
2018,08,07,00,05,18.40
2018,08,07,00,06,18.30
2018,08,07,00,07,18.30
2018,08,07,00,08,18.30
2018,08,07,00,09,18.30
2018,08,07,00,10,18.30
2018,08,07,00,11,18.30
2018,08,07,00,12,18.30
2018,08,07,00,13,18.30
2018,08,07,00,14,18.30
2018,08,07,00,15,18.30
2018,08,07,00,16,18.30
2018,08,07,00,17,18.30
2018,08,07,00,18,18.30
2018,08,07,00,19,18.30
2018,08,07,00,20,18.20
2018,08,07,00,21,18.20
2018,08,07,00,22,18.20
2018,08,07,00,23,18.20
2018,08,07,00,24,18.20
2018,08,07,00,25,18.20
2018,08,07,00,26,18.20
2018,08,07,00,27,18.20
2018,08,07,00,28,18.10
2018,08,07,00,29,18.10
2018,08,07,00,30,18.10
2018,08,07,00,31,18.10
2018,08,07,00,32,18.10
2018,08,07,00,33,18.10
2018,08,07,00,34,18.10
2018,08,07,00,35,18.10
2018,08,07,00,36,18.10
2018,08,07,00,37,18.00
2018,08,07,00,38,18.00
2018,08,07,00,39,18.00
2018,08,07,00,40,18.00
2018,08,07,00,41,18.00
2018,08,07,00,42,18.00
2018,08,07,00,43,18.00
2018,08,07,00,44,18.00
2018,08,07,00,45,18.00
2018,08,07,00,46,18.00
2018,08,07,00,47,17.90
2018,08,07,00,48,17.90
2018,08,07,00,49,17.90
2018,08,07,00,50,17.90
2018,08,07,00,51,17.90
2018,08,07,00,52,17.80
2018,08,07,00,53,17.80
2018,08,07,00,54,17.80
2018,08,07,00,55,17.80
2018,08,07,00,56,17.80
2018,08,07,00,57,17.70
2018,08,07,00,58,17.70
2018,08,07,00,59,17.70
2018,08,07,01,00,17.70
2018,08,07,01,01,17.70
2018,08,07,01,02,17.60
2018,08,07,01,03,17.60
2018,08,07,01,04,17.60
2018,08,07,01,05,17.60
2018,08,07,01,06,17.60
2018,08,07,01,07,17.60
2018,08,07,01,08,17.60
2018,08,07,01,09,17.60
2018,08,07,01,10,17.60
2018,08,07,01,11,17.60
2018,08,07,01,12,17.50
2018,08,07,01,13,17.50
2018,08,07,01,14,17.50
2018,08,07,01,15,17.50
2018,08,07,01,16,17.40
2018,08,07,01,17,17.40
2018,08,07,01,18,17.40
2018,08,07,01,19,17.40
2018,08,07,01,20,17.40
2018,08,07,01,21,17.40
2018,08,07,01,22,17.40
2018,08,07,01,23,17.40
2018,08,07,01,24,17.40
2018,08,07,01,25,17.30
2018,08,07,01,26,17.30
2018,08,07,01,27,17.30
2018,08,07,01,28,17.20
2018,08,07,01,29,17.20
2018,08,07,01,30,17.10
2018,08,07,01,31,17.10
2018,08,07,01,32,17.10
2018,08,07,01,33,17.10
2018,08,07,01,34,17.10
2018,08,07,01,35,17.20
2018,08,07,01,36,17.20
2018,08,07,01,37,17.20
2018,08,07,01,38,17.20
2018,08,07,01,39,17.20
2018,08,07,01,40,17.20
2018,08,07,01,41,17.20
2018,08,07,01,42,17.20
2018,08,07,01,43,17.20
2018,08,07,01,44,17.20
2018,08,07,01,45,17.10
2018,08,07,01,46,17.10
2018,08,07,01,47,17.10
2018,08,07,01,48,17.00
2018,08,07,01,49,17.00
2018,08,07,01,50,16.90
2018,08,07,01,51,16.90
2018,08,07,01,52,16.90
2018,08,07,01,53,16.80
2018,08,07,01,54,16.80
2018,08,07,01,55,16.80
2018,08,07,01,56,16.80
2018,08,07,01,57,16.80
2018,08,07,01,58,16.80
2018,08,07,01,59,16.80
2018,08,07,02,00,16.80
2018,08,07,02,01,16.80
2018,08,07,02,02,16.80
2018,08,07,02,03,16.70
2018,08,07,02,04,16.70
2018,08,07,02,05,16.70
2018,08,07,02,06,16.70
2018,08,07,02,07,16.70
2018,08,07,02,08,16.70
2018,08,07,02,09,16.70
2018,08,07,02,10,16.70
2018,08,07,02,11,16.70
2018,08,07,02,12,16.70
2018,08,07,02,13,16.70
2018,08,07,02,14,16.70
2018,08,07,02,15,16.70
2018,08,07,02,16,16.70
2018,08,07,02,17,16.70
2018,08,07,02,18,16.70
2018,08,07,02,19,16.70
2018,08,07,02,20,16.70
2018,08,07,02,21,16.70
2018,08,07,02,22,16.70
2018,08,07,02,23,16.70
2018,08,07,02,24,16.70
2018,08,07,02,25,16.70
2018,08,07,02,26,16.70
2018,08,07,02,27,16.70
2018,08,07,02,28,16.70
2018,08,07,02,29,16.70
2018,08,07,02,30,16.70
2018,08,07,02,31,16.60
2018,08,07,02,32,16.60
2018,08,07,02,33,16.60
2018,08,07,02,34,16.60
2018,08,07,02,35,16.60
2018,08,07,02,36,16.60
2018,08,07,02,37,16.70
2018,08,07,02,38,16.70
2018,08,07,02,39,16.70
2018,08,07,02,40,16.70
2018,08,07,02,41,16.60
2018,08,07,02,42,16.60
2018,08,07,02,43,16.60
2018,08,07,02,44,16.60
2018,08,07,02,45,16.60
2018,08,07,02,46,16.70
2018,08,07,02,47,16.60
2018,08,07,02,48,16.60
2018,08,07,02,49,16.60
2018,08,07,02,50,16.60
2018,08,07,02,51,16.60
2018,08,07,02,52,16.60
2018,08,07,02,53,16.60
2018,08,07,02,54,16.50
2018,08,07,02,55,16.50
2018,08,07,02,56,16.50
2018,08,07,02,57,16.50
2018,08,07,02,58,16.50
2018,08,07,02,59,16.50
2018,08,07,03,00,16.40
2018,08,07,03,01,16.40
2018,08,07,03,02,16.40
2018,08,07,03,03,16.40
2018,08,07,03,04,16.40
2018,08,07,03,05,16.40
2018,08,07,03,06,16.40
2018,08,07,03,07,16.40
2018,08,07,03,08,16.40
2018,08,07,03,09,16.30
2018,08,07,03,10,16.30
2018,08,07,03,11,16.30
2018,08,07,03,12,16.30
2018,08,07,03,13,16.30
2018,08,07,03,14,16.30
2018,08,07,03,15,16.40
2018,08,07,03,16,16.40
2018,08,07,03,17,16.40
2018,08,07,03,18,16.40
2018,08,07,03,19,16.40
2018,08,07,03,20,16.40
2018,08,07,03,21,16.40
2018,08,07,03,22,16.40
2018,08,07,03,23,16.40
2018,08,07,03,24,16.40
2018,08,07,03,25,16.40
2018,08,07,03,26,16.40
2018,08,07,03,27,16.40
2018,08,07,03,28,16.40
2018,08,07,03,29,16.40
2018,08,07,03,30,16.40
2018,08,07,03,31,16.40
2018,08,07,03,32,16.40
2018,08,07,03,33,16.30
2018,08,07,03,34,16.30
2018,08,07,03,35,16.30
2018,08,07,03,36,16.30
2018,08,07,03,37,16.20
2018,08,07,03,38,16.20
2018,08,07,03,39,16.20
2018,08,07,03,40,16.20
2018,08,07,03,41,16.20
2018,08,07,03,42,16.10
2018,08,07,03,43,16.10
2018,08,07,03,44,16.10
2018,08,07,03,45,16.10
2018,08,07,03,46,16.00
2018,08,07,03,47,16.00
2018,08,07,03,48,16.00
2018,08,07,03,49,16.00
2018,08,07,03,50,16.00
2018,08,07,03,51,15.90
2018,08,07,03,52,15.90
2018,08,07,03,53,15.90
2018,08,07,03,54,15.90
2018,08,07,03,55,15.90
2018,08,07,03,56,15.90
2018,08,07,03,57,15.90
2018,08,07,03,58,15.90
2018,08,07,03,59,15.90
2018,08,07,04,00,15.90
2018,08,07,04,01,15.90
2018,08,07,04,02,15.90
2018,08,07,04,03,15.90
2018,08,07,04,04,15.90
2018,08,07,04,05,15.90
2018,08,07,04,06,15.90
2018,08,07,04,07,15.90
2018,08,07,04,08,16.00
2018,08,07,04,09,16.00
2018,08,07,04,10,16.00
2018,08,07,04,11,16.00
2018,08,07,04,12,15.90
2018,08,07,04,13,15.90
2018,08,07,04,14,15.90
2018,08,07,04,15,15.90
2018,08,07,04,16,15.90
2018,08,07,04,17,15.90
2018,08,07,04,18,15.90
2018,08,07,04,19,15.90
2018,08,07,04,20,15.90
2018,08,07,04,21,15.90
2018,08,07,04,22,15.90
2018,08,07,04,23,16.00
2018,08,07,04,24,16.00
2018,08,07,04,25,16.00
2018,08,07,04,26,16.10
2018,08,07,04,27,16.10
2018,08,07,04,28,16.10
2018,08,07,04,29,16.10
2018,08,07,04,30,16.10
2018,08,07,04,31,16.10
2018,08,07,04,32,16.10
2018,08,07,04,33,16.10
2018,08,07,04,34,16.10
2018,08,07,04,35,16.10
2018,08,07,04,36,16.00
2018,08,07,04,37,16.00
2018,08,07,04,38,16.00
2018,08,07,04,39,16.00
2018,08,07,04,40,16.00
2018,08,07,04,41,15.90
2018,08,07,04,42,15.90
2018,08,07,04,43,15.90
2018,08,07,04,44,15.90
2018,08,07,04,45,15.90
2018,08,07,04,46,15.90
2018,08,07,04,47,15.90
2018,08,07,04,48,15.90
2018,08,07,04,49,15.80
2018,08,07,04,50,15.80
2018,08,07,04,51,15.80
2018,08,07,04,52,15.80
2018,08,07,04,53,15.80
2018,08,07,04,54,15.80
2018,08,07,04,55,15.80
2018,08,07,04,56,15.80
2018,08,07,04,57,15.80
2018,08,07,04,58,15.70
2018,08,07,04,59,15.70
2018,08,07,05,00,15.70
2018,08,07,05,01,15.70
2018,08,07,05,02,15.70
2018,08,07,05,03,15.70
2018,08,07,05,04,15.60
2018,08,07,05,05,15.60
2018,08,07,05,06,15.60
2018,08,07,05,07,15.50
2018,08,07,05,08,15.50
2018,08,07,05,09,15.50
2018,08,07,05,10,15.40
2018,08,07,05,11,15.40
2018,08,07,05,12,15.40
2018,08,07,05,13,15.40
2018,08,07,05,14,15.40
2018,08,07,05,15,15.40
2018,08,07,05,16,15.40
2018,08,07,05,17,15.40
2018,08,07,05,18,15.40
2018,08,07,05,19,15.30
2018,08,07,05,20,15.30
2018,08,07,05,21,15.30
2018,08,07,05,22,15.30
2018,08,07,05,23,15.30
2018,08,07,05,24,15.30
2018,08,07,05,25,15.30
2018,08,07,05,26,15.30
2018,08,07,05,27,15.30
2018,08,07,05,28,15.30
2018,08,07,05,29,15.30
2018,08,07,05,30,15.30
2018,08,07,05,31,15.30
2018,08,07,05,32,15.30
2018,08,07,05,33,15.30
2018,08,07,05,34,15.30
2018,08,07,05,35,15.30
2018,08,07,05,36,15.30
2018,08,07,05,37,15.40
2018,08,07,05,38,15.40
2018,08,07,05,39,15.40
2018,08,07,05,40,15.40
2018,08,07,05,41,15.40
2018,08,07,05,42,15.40
2018,08,07,05,43,15.40
2018,08,07,05,44,15.40
2018,08,07,05,45,15.40
2018,08,07,05,46,15.30
2018,08,07,05,47,15.30
2018,08,07,05,48,15.30
2018,08,07,05,49,15.30
2018,08,07,05,50,15.30
2018,08,07,05,51,15.30
2018,08,07,05,52,15.30
2018,08,07,05,53,15.30
2018,08,07,05,54,15.30
2018,08,07,05,55,15.30
2018,08,07,05,56,15.30
2018,08,07,05,57,15.30
2018,08,07,05,58,15.30
2018,08,07,05,59,15.30
2018,08,07,06,00,15.30
2018,08,07,06,01,15.30
2018,08,07,06,02,15.30
2018,08,07,06,03,15.30
2018,08,07,06,04,15.30
2018,08,07,06,05,15.30
2018,08,07,06,06,15.20
2018,08,07,06,07,15.20
2018,08,07,06,08,15.20
2018,08,07,06,09,15.20
2018,08,07,06,10,15.20
2018,08,07,06,11,15.20
2018,08,07,06,12,15.20
2018,08,07,06,13,15.20
2018,08,07,06,14,15.20
2018,08,07,06,15,15.20
2018,08,07,06,16,15.20
2018,08,07,06,17,15.20
2018,08,07,06,18,15.20
2018,08,07,06,19,15.20
2018,08,07,06,20,15.20
2018,08,07,06,21,15.20
2018,08,07,06,22,15.20
2018,08,07,06,23,15.20
2018,08,07,06,24,15.20
2018,08,07,06,25,15.20
2018,08,07,06,26,15.20
2018,08,07,06,27,15.20
2018,08,07,06,28,15.20
2018,08,07,06,29,15.20
2018,08,07,06,30,15.20
2018,08,07,06,31,15.20
2018,08,07,06,32,15.20
2018,08,07,06,33,15.20
2018,08,07,06,34,15.20
2018,08,07,06,35,15.30
2018,08,07,06,36,15.30
2018,08,07,06,37,15.30
2018,08,07,06,38,15.30
2018,08,07,06,39,15.30
2018,08,07,06,40,15.30
2018,08,07,06,41,15.30
2018,08,07,06,42,15.30
2018,08,07,06,43,15.30
2018,08,07,06,44,15.30
2018,08,07,06,45,15.40
2018,08,07,06,46,15.40
2018,08,07,06,47,15.40
2018,08,07,06,48,15.40
2018,08,07,06,49,15.50
2018,08,07,06,50,15.50
2018,08,07,06,51,15.50
2018,08,07,06,52,15.60
2018,08,07,06,53,15.60
2018,08,07,06,54,15.60
2018,08,07,06,55,15.60
2018,08,07,06,56,15.60
2018,08,07,06,57,15.60
2018,08,07,06,58,15.60
2018,08,07,06,59,15.60
2018,08,07,07,00,15.60
2018,08,07,07,01,15.70
2018,08,07,07,02,15.70
2018,08,07,07,03,15.70
2018,08,07,07,04,15.70
2018,08,07,07,05,15.70
2018,08,07,07,06,15.70
2018,08,07,07,07,15.80
2018,08,07,07,08,15.80
2018,08,07,07,09,15.80
2018,08,07,07,10,15.90
2018,08,07,07,11,15.90
2018,08,07,07,12,16.00
2018,08,07,07,13,16.00
2018,08,07,07,14,16.10
2018,08,07,07,15,16.20
2018,08,07,07,16,16.20
2018,08,07,07,17,16.20
2018,08,07,07,18,16.20
2018,08,07,07,19,16.30
2018,08,07,07,20,16.30
2018,08,07,07,21,16.30
2018,08,07,07,22,16.30
2018,08,07,07,23,16.30
2018,08,07,07,24,16.30
2018,08,07,07,25,16.30
2018,08,07,07,26,16.30
2018,08,07,07,27,16.40
2018,08,07,07,28,16.40
2018,08,07,07,29,16.40
2018,08,07,07,30,16.50
2018,08,07,07,31,16.60
2018,08,07,07,32,16.60
2018,08,07,07,33,16.70
2018,08,07,07,34,16.70
2018,08,07,07,35,16.70
2018,08,07,07,36,16.80
2018,08,07,07,37,16.80
2018,08,07,07,38,16.90
2018,08,07,07,39,17.00
2018,08,07,07,40,17.00
2018,08,07,07,41,17.10
2018,08,07,07,42,17.10
2018,08,07,07,43,17.20
2018,08,07,07,44,17.20
2018,08,07,07,45,17.30
2018,08,07,07,46,17.30
2018,08,07,07,47,17.40
2018,08,07,07,48,17.40
2018,08,07,07,49,17.40
2018,08,07,07,50,17.50
2018,08,07,07,51,17.50
2018,08,07,07,52,17.60
2018,08,07,07,53,17.60
2018,08,07,07,54,17.70
2018,08,07,07,55,17.70
2018,08,07,07,56,17.80
2018,08,07,07,57,17.90
2018,08,07,07,58,17.90
2018,08,07,07,59,18.10
2018,08,07,08,00,18.10
2018,08,07,08,01,18.20
2018,08,07,08,02,18.30
2018,08,07,08,03,18.40
2018,08,07,08,04,18.50
2018,08,07,08,05,18.60
2018,08,07,08,06,18.70
2018,08,07,08,07,18.80
2018,08,07,08,08,18.80
2018,08,07,08,09,18.80
2018,08,07,08,10,18.90
2018,08,07,08,11,18.90
2018,08,07,08,12,19.00
2018,08,07,08,13,19.10
2018,08,07,08,14,19.20
2018,08,07,08,15,19.20
2018,08,07,08,16,19.30
2018,08,07,08,17,19.30
2018,08,07,08,18,19.40
2018,08,07,08,19,19.40
2018,08,07,08,20,19.50
2018,08,07,08,21,19.50
2018,08,07,08,22,19.60
2018,08,07,08,23,19.70
2018,08,07,08,24,19.70
2018,08,07,08,25,19.80
2018,08,07,08,26,19.90
2018,08,07,08,27,19.90
2018,08,07,08,28,20.00
2018,08,07,08,29,20.10
2018,08,07,08,30,20.20
2018,08,07,08,31,20.30
2018,08,07,08,32,20.30
2018,08,07,08,33,20.40
2018,08,07,08,34,20.50
2018,08,07,08,35,20.60
2018,08,07,08,36,20.60
2018,08,07,08,37,20.70
2018,08,07,08,38,20.80
2018,08,07,08,39,20.80
2018,08,07,08,40,20.90
2018,08,07,08,41,20.90
2018,08,07,08,42,21.00
2018,08,07,08,43,21.00
2018,08,07,08,44,21.10
2018,08,07,08,45,21.10
2018,08,07,08,46,21.20
2018,08,07,08,47,21.30
2018,08,07,08,48,21.30
2018,08,07,08,49,21.40
2018,08,07,08,50,21.50
2018,08,07,08,51,21.60
2018,08,07,08,52,21.70
2018,08,07,08,53,21.70
2018,08,07,08,54,21.80
2018,08,07,08,55,21.80
2018,08,07,08,56,21.80
2018,08,07,08,57,21.80
2018,08,07,08,58,21.80
2018,08,07,08,59,21.80
2018,08,07,09,00,21.80
2018,08,07,09,01,21.90
2018,08,07,09,02,21.90
2018,08,07,09,03,21.90
2018,08,07,09,04,21.90
2018,08,07,09,05,21.90
2018,08,07,09,06,21.90
2018,08,07,09,07,21.90
2018,08,07,09,08,21.80
2018,08,07,09,09,21.70
2018,08,07,09,10,21.60
2018,08,07,09,11,21.50
2018,08,07,09,12,21.30
2018,08,07,09,13,21.10
2018,08,07,09,14,20.90
2018,08,07,09,15,20.80
2018,08,07,09,16,20.60
2018,08,07,09,17,20.50
2018,08,07,09,18,20.40
2018,08,07,09,19,20.40
2018,08,07,09,20,20.30
2018,08,07,09,21,20.20
2018,08,07,09,22,20.20
2018,08,07,09,23,20.10
2018,08,07,09,24,20.10
2018,08,07,09,25,20.00
2018,08,07,09,26,19.90
2018,08,07,09,27,19.90
2018,08,07,09,28,19.90
2018,08,07,09,29,19.90
2018,08,07,09,30,20.00
2018,08,07,09,31,19.90
2018,08,07,09,32,19.90
2018,08,07,09,33,19.90
2018,08,07,09,34,20.00
2018,08,07,09,35,20.00
2018,08,07,09,36,20.00
2018,08,07,09,37,20.10
2018,08,07,09,38,20.10
2018,08,07,09,39,20.10
2018,08,07,09,40,20.20
2018,08,07,09,41,20.20
2018,08,07,09,42,20.20
2018,08,07,09,43,20.30
2018,08,07,09,44,20.40
2018,08,07,09,45,20.40
2018,08,07,09,46,20.60
2018,08,07,09,47,20.70
2018,08,07,09,48,20.80
2018,08,07,09,49,20.90
2018,08,07,09,50,21.00
2018,08,07,09,51,21.10
2018,08,07,09,52,21.10
2018,08,07,09,53,21.20
2018,08,07,09,54,21.20
2018,08,07,09,55,21.20
2018,08,07,09,56,21.20
2018,08,07,09,57,21.30
2018,08,07,09,58,21.40
2018,08,07,09,59,21.40
2018,08,07,10,00,21.40
2018,08,07,10,01,21.50
2018,08,07,10,02,21.50
2018,08,07,10,03,21.60
2018,08,07,10,04,21.60
2018,08,07,10,05,21.60
2018,08,07,10,06,21.70
2018,08,07,10,07,21.70
2018,08,07,10,08,21.80
2018,08,07,10,09,21.80
2018,08,07,10,10,21.80
2018,08,07,10,11,21.80
2018,08,07,10,12,21.80
2018,08,07,10,13,21.90
2018,08,07,10,14,21.90
2018,08,07,10,15,21.90
2018,08,07,10,16,21.90
2018,08,07,10,17,21.90
2018,08,07,10,18,21.90
2018,08,07,10,19,21.90
2018,08,07,10,20,22.00
2018,08,07,10,21,22.00
2018,08,07,10,22,22.10
2018,08,07,10,23,22.10
2018,08,07,10,24,22.10
2018,08,07,10,25,22.10
2018,08,07,10,26,22.20
2018,08,07,10,27,22.30
2018,08,07,10,28,22.40
2018,08,07,10,29,22.50
2018,08,07,10,30,22.60
2018,08,07,10,31,22.70
2018,08,07,10,32,22.80
2018,08,07,10,33,22.80
2018,08,07,10,34,22.80
2018,08,07,10,35,22.80
2018,08,07,10,36,22.80
2018,08,07,10,37,22.90
2018,08,07,10,38,22.90
2018,08,07,10,39,23.00
2018,08,07,10,40,23.00
2018,08,07,10,41,23.00
2018,08,07,10,42,23.10
2018,08,07,10,43,23.10
2018,08,07,10,44,23.20
2018,08,07,10,45,23.20
2018,08,07,10,46,23.20
2018,08,07,10,47,23.30
2018,08,07,10,48,23.30
2018,08,07,10,49,23.30
2018,08,07,10,50,23.30
2018,08,07,10,51,23.30
2018,08,07,10,52,23.30
2018,08,07,10,53,23.40
2018,08,07,10,54,23.50
2018,08,07,10,55,23.50
2018,08,07,10,56,23.60
2018,08,07,10,57,23.70
2018,08,07,10,58,23.70
2018,08,07,10,59,23.70
2018,08,07,11,00,23.70
2018,08,07,11,01,23.70
2018,08,07,11,02,23.70
2018,08,07,11,03,23.70
2018,08,07,11,04,23.80
2018,08,07,11,05,23.90
2018,08,07,11,06,23.90
2018,08,07,11,07,24.00
2018,08,07,11,08,24.00
2018,08,07,11,09,24.10
2018,08,07,11,10,24.10
2018,08,07,11,11,24.10
2018,08,07,11,12,24.10
2018,08,07,11,13,24.20
2018,08,07,11,14,24.20
2018,08,07,11,15,24.20
2018,08,07,11,16,24.20
2018,08,07,11,17,24.20
2018,08,07,11,18,24.20
2018,08,07,11,19,24.10
2018,08,07,11,20,24.00
2018,08,07,11,21,24.00
2018,08,07,11,22,24.00
2018,08,07,11,23,24.10
2018,08,07,11,24,24.10
2018,08,07,11,25,24.10
2018,08,07,11,26,24.10
2018,08,07,11,27,24.20
2018,08,07,11,28,24.20
2018,08,07,11,29,24.30
2018,08,07,11,30,24.30
2018,08,07,11,31,24.40
2018,08,07,11,32,24.50
2018,08,07,11,33,24.50
2018,08,07,11,34,24.60
2018,08,07,11,35,24.60
2018,08,07,11,36,24.60
2018,08,07,11,37,24.50
2018,08,07,11,38,24.50
2018,08,07,11,39,24.50
2018,08,07,11,40,24.50
2018,08,07,11,41,24.60
2018,08,07,11,42,24.60
2018,08,07,11,43,24.70
2018,08,07,11,44,24.80
2018,08,07,11,45,24.80
2018,08,07,11,46,24.80
2018,08,07,11,47,24.80
2018,08,07,11,48,24.80
2018,08,07,11,49,24.80
2018,08,07,11,50,24.80
2018,08,07,11,51,24.80
2018,08,07,11,52,24.70
2018,08,07,11,53,24.70
2018,08,07,11,54,24.70
2018,08,07,11,55,24.70
2018,08,07,11,56,24.70
2018,08,07,11,57,24.70
2018,08,07,11,58,24.80
2018,08,07,11,59,24.80
2018,08,07,12,00,24.80
2018,08,07,12,01,24.80
2018,08,07,12,02,24.80
2018,08,07,12,03,24.90
2018,08,07,12,04,24.90
2018,08,07,12,05,25.00
2018,08,07,12,06,25.10
2018,08,07,12,07,25.10
2018,08,07,12,08,25.20
2018,08,07,12,09,25.40
2018,08,07,12,10,25.50
2018,08,07,12,11,25.60
2018,08,07,12,12,25.70
2018,08,07,12,13,25.70
2018,08,07,12,14,25.70
2018,08,07,12,15,25.80
2018,08,07,12,16,25.80
2018,08,07,12,17,25.90
2018,08,07,12,18,25.90
2018,08,07,12,19,25.90
2018,08,07,12,20,26.00
2018,08,07,12,21,26.00
2018,08,07,12,22,25.90
2018,08,07,12,23,25.90
2018,08,07,12,24,25.90
2018,08,07,12,25,26.00
2018,08,07,12,26,26.10
2018,08,07,12,27,26.20
2018,08,07,12,28,26.30
2018,08,07,12,29,26.40
2018,08,07,12,30,26.40
2018,08,07,12,31,26.50
2018,08,07,12,32,26.50
2018,08,07,12,33,26.50
2018,08,07,12,34,26.50
2018,08,07,12,35,26.50
2018,08,07,12,36,26.50
2018,08,07,12,37,26.50
2018,08,07,12,38,26.50
2018,08,07,12,39,26.50
2018,08,07,12,40,26.40
2018,08,07,12,41,26.40
2018,08,07,12,42,26.30
2018,08,07,12,43,26.30
2018,08,07,12,44,26.30
2018,08,07,12,45,26.20
2018,08,07,12,46,25.90
2018,08,07,12,47,25.60
2018,08,07,12,48,25.40
2018,08,07,12,49,25.30
2018,08,07,12,50,25.20
2018,08,07,12,51,25.20
2018,08,07,12,52,25.10
2018,08,07,12,53,25.00
2018,08,07,12,54,25.00
2018,08,07,12,55,24.90
2018,08,07,12,56,24.80
2018,08,07,12,57,24.70
2018,08,07,12,58,24.70
2018,08,07,12,59,24.70
2018,08,07,13,00,24.60
2018,08,07,13,01,24.70
2018,08,07,13,02,24.70
2018,08,07,13,03,24.80
2018,08,07,13,04,24.80
2018,08,07,13,05,24.90
2018,08,07,13,06,24.90
2018,08,07,13,07,25.00
2018,08,07,13,08,25.00
2018,08,07,13,09,25.10
2018,08,07,13,10,25.20
2018,08,07,13,11,25.20
2018,08,07,13,12,25.30
2018,08,07,13,13,25.30
2018,08,07,13,14,25.30
2018,08,07,13,15,25.30
2018,08,07,13,16,25.40
2018,08,07,13,17,25.40
2018,08,07,13,18,25.40
2018,08,07,13,19,25.40
2018,08,07,13,20,25.30
2018,08,07,13,21,25.30
2018,08,07,13,22,25.30
2018,08,07,13,23,25.30
2018,08,07,13,24,25.30
2018,08,07,13,25,25.30
2018,08,07,13,26,25.40
2018,08,07,13,27,25.50
2018,08,07,13,28,25.50
2018,08,07,13,29,25.60
2018,08,07,13,30,25.60
2018,08,07,13,31,25.70
2018,08,07,13,32,25.70
2018,08,07,13,33,25.70
2018,08,07,13,34,25.60
2018,08,07,13,35,25.60
2018,08,07,13,36,25.60
2018,08,07,13,37,25.60
2018,08,07,13,38,25.50
2018,08,07,13,39,25.50
2018,08,07,13,40,25.50
2018,08,07,13,41,25.50
2018,08,07,13,42,25.50
2018,08,07,13,43,25.40
2018,08,07,13,44,25.40
2018,08,07,13,45,25.40
2018,08,07,13,46,25.40
2018,08,07,13,47,25.40
2018,08,07,13,48,25.50
2018,08,07,13,49,25.50
2018,08,07,13,50,25.50
2018,08,07,13,51,25.50
2018,08,07,13,52,25.50
2018,08,07,13,53,25.50
2018,08,07,13,54,25.60
2018,08,07,13,55,25.70
2018,08,07,13,56,25.70
2018,08,07,13,57,25.70
2018,08,07,13,58,25.70
2018,08,07,13,59,25.70
2018,08,07,14,00,25.70
2018,08,07,14,01,25.70
2018,08,07,14,02,25.70
2018,08,07,14,03,25.80
2018,08,07,14,04,25.80
2018,08,07,14,05,25.90
2018,08,07,14,06,25.90
2018,08,07,14,07,26.00
2018,08,07,14,08,26.00
2018,08,07,14,09,26.00
2018,08,07,14,10,26.00
2018,08,07,14,11,26.00
2018,08,07,14,12,26.00
2018,08,07,14,13,25.90
2018,08,07,14,14,25.80
2018,08,07,14,15,25.80
2018,08,07,14,16,25.80
2018,08,07,14,17,25.70
2018,08,07,14,18,25.70
2018,08,07,14,19,25.70
2018,08,07,14,20,25.70
2018,08,07,14,21,25.70
2018,08,07,14,22,25.60
2018,08,07,14,23,25.60
2018,08,07,14,24,25.60
2018,08,07,14,25,25.70
2018,08,07,14,26,25.70
2018,08,07,14,27,25.80
2018,08,07,14,28,25.80
2018,08,07,14,29,25.80
2018,08,07,14,30,25.90
2018,08,07,14,31,25.90
2018,08,07,14,32,26.00
2018,08,07,14,33,26.00
2018,08,07,14,34,26.10
2018,08,07,14,35,26.00
2018,08,07,14,36,26.00
2018,08,07,14,37,26.00
2018,08,07,14,38,26.00
2018,08,07,14,39,26.00
2018,08,07,14,40,26.00
2018,08,07,14,41,26.00
2018,08,07,14,42,26.10
2018,08,07,14,43,26.20
2018,08,07,14,44,26.30
2018,08,07,14,45,26.40
2018,08,07,14,46,26.50
2018,08,07,14,47,26.60
2018,08,07,14,48,26.50
2018,08,07,14,49,26.50
2018,08,07,14,50,26.40
2018,08,07,14,51,26.50
2018,08,07,14,52,26.50
2018,08,07,14,53,26.60
2018,08,07,14,54,26.60
2018,08,07,14,55,26.60
2018,08,07,14,56,26.70
2018,08,07,14,57,26.80
2018,08,07,14,58,26.80
2018,08,07,14,59,26.80
2018,08,07,15,00,26.80
2018,08,07,15,01,26.80
2018,08,07,15,02,26.80
2018,08,07,15,03,26.80
2018,08,07,15,04,26.80
2018,08,07,15,05,26.80
2018,08,07,15,06,26.80
2018,08,07,15,07,26.80
2018,08,07,15,08,26.90
2018,08,07,15,09,26.90
2018,08,07,15,10,27.00
2018,08,07,15,11,27.00
2018,08,07,15,12,27.10
2018,08,07,15,13,27.20
2018,08,07,15,14,27.20
2018,08,07,15,15,27.20
2018,08,07,15,16,27.30
2018,08,07,15,17,27.30
2018,08,07,15,18,27.30
2018,08,07,15,19,27.30
2018,08,07,15,20,27.30
2018,08,07,15,21,27.20
2018,08,07,15,22,27.20
2018,08,07,15,23,27.20
2018,08,07,15,24,27.20
2018,08,07,15,25,27.30
2018,08,07,15,26,27.30
2018,08,07,15,27,27.30
2018,08,07,15,28,27.30
2018,08,07,15,29,27.40
2018,08,07,15,30,27.40
2018,08,07,15,31,27.50
2018,08,07,15,32,27.60
2018,08,07,15,33,27.60
2018,08,07,15,34,27.60
2018,08,07,15,35,27.70
2018,08,07,15,36,27.80
2018,08,07,15,37,27.80
2018,08,07,15,38,27.80
2018,08,07,15,39,27.80
2018,08,07,15,40,27.90
2018,08,07,15,41,27.90
2018,08,07,15,42,27.90
2018,08,07,15,43,28.00
2018,08,07,15,44,28.00
2018,08,07,15,45,28.00
2018,08,07,15,46,28.00
2018,08,07,15,47,28.00
2018,08,07,15,48,28.10
2018,08,07,15,49,28.10
2018,08,07,15,50,28.10
2018,08,07,15,51,28.10
2018,08,07,15,52,28.10
2018,08,07,15,53,28.10
2018,08,07,15,54,28.10
2018,08,07,15,55,28.10
2018,08,07,15,56,28.10
2018,08,07,15,57,28.20
2018,08,07,15,58,28.20
2018,08,07,15,59,28.20
2018,08,07,16,00,28.30
2018,08,07,16,01,28.30
2018,08,07,16,02,28.30
2018,08,07,16,03,28.20
2018,08,07,16,04,28.00
2018,08,07,16,05,27.90
2018,08,07,16,06,27.80
2018,08,07,16,07,27.80
2018,08,07,16,08,27.80
2018,08,07,16,09,27.80
2018,08,07,16,10,27.80
2018,08,07,16,11,27.80
2018,08,07,16,12,27.80
2018,08,07,16,13,27.80
2018,08,07,16,14,27.70
2018,08,07,16,15,27.70
2018,08,07,16,16,27.80
2018,08,07,16,17,27.90
2018,08,07,16,18,28.00
2018,08,07,16,19,28.10
2018,08,07,16,20,28.10
2018,08,07,16,21,28.20
2018,08,07,16,22,28.20
2018,08,07,16,23,28.20
2018,08,07,16,24,28.20
2018,08,07,16,25,28.20
2018,08,07,16,26,28.30
2018,08,07,16,27,28.30
2018,08,07,16,28,28.30
2018,08,07,16,29,28.30
2018,08,07,16,30,28.40
2018,08,07,16,31,28.50
2018,08,07,16,32,28.60
2018,08,07,16,33,28.60
2018,08,07,16,34,28.70
2018,08,07,16,35,28.80
2018,08,07,16,36,28.80
2018,08,07,16,37,28.80
2018,08,07,16,38,28.80
2018,08,07,16,39,28.80
2018,08,07,16,40,28.80
2018,08,07,16,41,28.80
2018,08,07,16,42,28.70
2018,08,07,16,43,28.60
2018,08,07,16,44,28.50
2018,08,07,16,45,28.40
2018,08,07,16,46,28.40
2018,08,07,16,47,28.30
2018,08,07,16,48,28.30
2018,08,07,16,49,28.30
2018,08,07,16,50,28.20
2018,08,07,16,51,28.20
2018,08,07,16,52,28.20
2018,08,07,16,53,28.20
2018,08,07,16,54,28.20
2018,08,07,16,55,28.20
2018,08,07,16,56,28.20
2018,08,07,16,57,28.20
2018,08,07,16,58,28.20
2018,08,07,16,59,28.20
2018,08,07,17,00,28.20
2018,08,07,17,01,28.20
2018,08,07,17,02,28.20
2018,08,07,17,03,28.30
2018,08,07,17,04,28.20
2018,08,07,17,05,28.20
2018,08,07,17,06,28.20
2018,08,07,17,07,28.20
2018,08,07,17,08,28.20
2018,08,07,17,09,28.30
2018,08,07,17,10,28.30
2018,08,07,17,11,28.40
2018,08,07,17,12,28.50
2018,08,07,17,13,28.50
2018,08,07,17,14,28.50
2018,08,07,17,15,28.60
2018,08,07,17,16,28.60
2018,08,07,17,17,28.60
2018,08,07,17,18,28.50
2018,08,07,17,19,28.50